RH
10 10 11 10 9 9 9 10 10 10 12 12 18 54 60 33 19 16 19 20 22 25 25 27 29 30 33 43 53 61 64 72 70 74 70 70 69 77 69 65 72 71 71 74
8 10 7 7 8 9 9 11 11 10 12 13 13 35 38 28 19 17 16 18 19 19 23 28 31 30 33 43 54 65 68 74 73 69 74 70 70 62 65 64 73 72 72 78
9 6 5 6 8 10 10 10 11 11 11 11 12 15 20 19 16 16 15 16 16 19 20 30 32 33 34 44 55 63 72 74 75 73 74 83 85 82 76 67 69 70 71 77
8 6 5 6 8 8 11 8 9 9 14 19 14 22 26 20 21 18 16 16 16 18 20 24 30 35 34 42 50 63 71 75 76 77 76 78 69 72 66 69 64 68 70 71
8 7 6 6 6 7 10 8 9 9 11 18 19 22 21 20 22 21 18 17 16 17 18 21 29 33 34 38 48 56 72 77 77 78 77 74 73 64 61 58 75 80 83 75
8 5 5 4 4 5 6 8 8 9 10 18 16 20 19 19 22 18 18 17 17 17 18 21 26 32 36 36 45 53 72 79 77 79 79 80 77 72 62 67 70 68 70 70
8 7 4 4 5 5 6 8 15 16 15 17 12 20 24 18 16 15 27 22 18 18 18 21 26 32 38 41 45 53 69 78 78 77 79 78 77 78 79 76 66 68 62 65
11 11 6 5 5 6 6 7 13 25 18 15 13 16 15 15 15 17 19 25 15 17 16 19 25 30 38 40 46 51 66 76 77 75 81 81 78 68 68 70 62 64 62 62
9 10 6 5 5 4 6 8 6 11 11 13 12 11 9 10 15 18 13 10 11 16 18 19 24 28 36 40 46 53 66 74 75 73 78 82 80 76 69 72 73 65 71 62
9 12 6 6 5 5 5 5 8 9 22 23 14 17 15 15 16 17 17 15 10 11 18 18 20 27 32 35 40 48 56 69 73 72 73 73 76 76 72 72 76 70 68 69
7 10 9 7 8 8 6 6 7 7 10 17 20 16 12 19 18 16 14 11 10 11 17 16 20 22 30 33 38 43 50 63 69 70 71 72 72 73 74 73 74 72 72 72
8 8 13 9 6 5 6 7 7 10 21 12 14 13 8 15 13 11 12 11 11 12 14 16 19 21 27 32 35 40 45 51 60 66 70 71 73 74 73 74 73 73 77 74
8 11 16 12 8 7 7 6 6 6 9 19 16 14 9 12 16 15 12 12 15 16 19 18 17 23 25 29 34 36 41 43 51 61 62 66 69 72 74 76 72 75 75 76
19 10 17 13 15 10 12 8 7 7 9 12 11 14 13 14 15 13 15 14 14 20 27 20 20 24 25 30 37 40 39 38 44 52 56 64 66 68 68 73 76 72 75 77
10 20 14 10 9 9 9 8 7 9 10 12 10 11 14 13 15 15 12 15 16 18 24 25 25 32 34 37 40 39 36 40 39 52 55 62 67 68 71 73 76 75 77 79
9 21 18 16 10 10 10 9 7 7 8 9 9 10 7 9 11 19 14 15 17 18 16 25 28 33 38 37 40 39 38 39 41 50 53 60 67 72 73 75 78 80 82 84
17 15 25 24 14 13 15 12 10 8 6 7 10 10 10 10 14 15 20 16 17 16 17 22 29 31 32 34 39 39 40 40 44 54 55 60 68 74 75 75 78 83 85 85
21 26 22 23 23 29 13 9 8 9 9 7 8 10 10 12 12 12 11 15 18 16 16 18 12 28 36 27 27 36 38 48 50 62 59 62 69 75 76 78 81 86 86 86
16 25 26 29 28 22 17 13 14 14 15 11 10 12 8 9 9 12 10 10 13 13 18 18 12 17 39 34 36 42 42 45 56 56 64 64 71 77 80 83 88 86 88 86
17 35 28 29 32 35 24 21 18 19 26 24 25 24 20 15 12 11 12 10 9 9 11 21 21 22 38 41 34 43 46 49 51 58 63 70 78 83 88 87 89 87 84 84
28 34 31 30 29 22 31 24 20 34 32 31 28 28 27 26 26 30 26 32 28 15 18 23 33 38 46 45 40 51 51 56 53 61 65 74 83 87 88 89 86 85 85 86
33 28 29 34 40 45 24 33 35 38 31 28 27 27 28 29 27 23 22 28 30 28 23 27 44 51 50 49 54 62 67 66 68 71 73 82 87 79 81 88 90 89 88 88
28 22 24 27 27 33 32 39 33 28 33 35 37 29 25 23 23 26 29 30 31 27 33 31 44 56 56 63 63 69 76 72 73 75 81 84 86 82 85 89 90 86 87 77
25 47 27 30 28 33 32 28 28 29 44 46 50 54 56 35 28 30 32 34 39 40 45 45 50 58 66 67 66 72 73 75 77 84 86 86 85 87 87 87 82 75 76 75
86 72 67 36 49 44 41 37 35 39 40 44 49 52 61 65 69 56 57 58 52 56 60 61 62 66 69 74 74 71 76 80 84 85 85 88 88 87 90 84 85 75 89 91
84 93 96 89 50 54 54 40 37 37 36 36 42 48 61 67 71 77 77 73 66 67 66 70 67 71 76 74 75 76 82 83 83 83 83 86 92 90 85 77 76 98 97 96
Wind_Speed
19 15 20 24 24 22 23 20 22 14 11 17 18 13 18 30 21 19 19 18 19 20 19 18 19 18 17 16 15 15 13 10 7 9 8 6 4 3 4 7 9 8 4 3
20 24 24 24 25 26 27 26 23 14 19 20 18 26 29 30 23 21 21 19 19 20 20 19 20 18 19 16 17 15 15 11 9 6 6 6 7 7 7 5 9 8 8 6
23 21 23 25 26 27 27 25 22 20 18 23 16 15 23 28 22 18 19 21 20 20 21 21 20 20 18 19 18 16 16 14 12 10 7 4 3 5 4 5 8 8 8 7
24 24 25 27 29 27 27 24 26 24 13 12 15 11 12 18 22 20 21 19 22 21 21 20 22 21 19 17 17 16 16 15 14 14 11 11 8 6 5 5 8 7 7 5
23 26 27 27 30 29 24 25 25 24 21 20 20 13 11 25 22 25 22 22 21 21 22 21 23 21 20 17 18 17 18 17 16 15 12 10 8 7 6 5 5 10 7 9
25 21 27 27 25 29 25 24 24 22 19 18 18 15 20 15 19 19 22 22 21 22 22 22 22 21 20 18 19 19 18 18 16 16 16 11 12 10 8 6 7 8 8 6
25 26 25 25 26 26 29 23 16 18 17 16 20 21 10 20 23 21 4 13 22 21 21 22 22 22 22 21 20 19 20 19 18 16 16 14 10 12 7 5 7 7 7 8
21 22 26 23 28 24 27 27 16 21 18 19 22 21 16 25 23 11 16 39 25 24 21 22 24 22 22 23 19 20 21 20 19 18 17 14 14 8 8 9 6 7 5 5
19 25 20 30 23 27 26 28 26 26 22 19 18 18 23 17 19 18 27 21 18 24 23 22 23 22 21 21 21 20 20 21 20 19 16 16 14 13 11 10 8 6 6 6
24 20 20 23 26 29 30 17 24 21 26 24 20 23 11 18 16 20 11 19 13 11 20 20 20 22 20 21 20 19 18 21 20 19 17 15 17 16 14 10 10 11 9 8
24 23 19 23 27 25 18 23 25 21 20 17 17 16 15 16 15 19 19 16 15 12 20 18 20 20 20 19 20 20 20 20 19 19 18 17 17 18 15 11 11 12 9 11
26 17 20 26 25 28 29 29 27 18 21 19 20 15 17 7 10 10 10 15 13 15 14 15 17 20 21 21 21 21 20 20 20 19 18 19 19 17 17 16 13 13 11 11
20 21 16 24 24 25 30 27 24 26 22 20 19 15 20 6 4 11 13 16 11 3 12 18 17 19 21 22 21 21 22 21 20 19 20 20 18 18 18 18 16 13 13 13
7 17 26 18 20 17 26 30 28 26 18 20 21 19 25 12 14 11 11 14 9 4 11 14 13 18 21 22 21 21 22 21 21 21 21 19 19 20 18 17 17 17 15 14
15 16 21 28 28 25 25 29 29 27 25 23 20 27 18 22 14 18 15 8 7 5 9 7 8 11 18 18 21 21 21 21 22 22 21 21 19 18 17 17 17 16 15 13
22 17 18 23 25 27 24 27 28 29 29 27 25 25 21 19 20 8 15 11 13 11 9 13 13 9 12 18 21 21 21 22 19 19 21 20 19 18 17 16 15 14 12 12
20 16 16 20 25 23 25 25 22 23 24 25 23 22 17 19 14 13 9 11 15 13 11 7 12 13 11 16 21 22 22 19 19 17 19 18 17 18 18 16 14 14 13 11
20 20 15 17 19 25 15 18 24 22 18 19 23 20 17 19 17 16 15 11 11 14 16 12 12 12 11 13 19 19 18 16 19 15 17 16 16 17 15 14 14 12 10 10
15 18 14 15 17 14 19 17 11 8 13 15 16 17 18 17 16 17 16 15 15 17 12 13 14 10 14 14 14 17 20 19 15 18 17 16 15 16 14 13 12 9 8 8
16 5 9 13 17 24 19 7 6 4 8 10 11 11 13 13 15 12 14 16 19 21 15 7 7 12 15 14 15 16 17 19 19 17 15 14 15 15 13 11 9 6 7 9
11 9 12 12 14 15 7 4 4 11 2 7 8 9 10 11 9 15 5 7 16 13 11 3 5 10 14 15 16 16 16 17 16 12 12 12 13 12 12 10 7 7 7 4
7 10 11 11 11 15 14 18 19 5 3 5 8 9 11 9 12 11 4 3 7 7 3 3 5 8 11 12 13 13 11 9 10 12 12 13 12 10 9 8 5 7 6 6
13 14 10 12 10 9 8 10 6 7 6 13 13 13 12 12 8 4 2 2 3 2 4 6 10 8 7 9 12 13 11 12 12 13 13 12 12 9 9 9 9 6 6 7
15 13 15 15 13 4 11 9 8 11 19 18 21 21 26 13 3 6 5 6 6 7 9 11 12 11 11 12 12 13 12 13 13 14 13 11 11 10 10 7 8 7 7 6
7 11 12 15 15 14 12 11 11 17 17 19 19 21 21 20 22 17 15 15 13 13 14 12 12 11 11 12 13 13 12 12 13 13 11 10 8 9 7 8 3 3 5 3
5 4 5 3 10 13 12 10 14 17 18 18 19 19 15 16 16 17 15 13 12 11 11 11 11 11 10 11 10 10 13 12 12 12 10 9 8 8 7 8 8 16 10 7
Wind_Direction
203 213 215 217 219 231 249 238 231 224 193 207 166 139 159 243 226 195 182 192 184 188 189 187 189 184 186 176 176 181 190 193 172 159 181 205 224 198 211 215 220 185 156 199
208 221 224 218 213 228 245 256 253 221 189 210 202 166 159 219 207 190 188 189 196 191 187 188 182 194 186 186 182 180 187 191 186 186 184 191 201 219 210 223 158 172 197 180
226 217 224 222 218 217 235 245 254 257 194 195 209 217 182 195 184 190 192 191 195 194 196 181 186 191 191 184 182 184 185 187 182 194 177 217 251 231 203 207 169 185 174 171
228 237 211 226 221 220 227 233 253 266 158 214 231 218 235 224 190 192 189 199 194 194 192 187 184 186 196 188 184 179 180 183 183 197 186 194 201 219 214 166 195 182 164 159
230 227 234 212 224 223 232 230 237 255 263 195 202 231 266 211 191 186 193 197 200 190 193 194 184 185 192 189 182 181 181 186 186 192 204 189 194 207 226 224 140 133 162 191
240 232 228 237 215 230 229 240 249 244 252 254 211 212 252 215 196 238 192 200 201 192 191 191 182 182 188 192 182 183 179 187 190 188 194 204 190 219 210 183 151 163 171 174
228 236 235 224 233 211 231 225 233 237 235 250 241 203 210 236 204 220 109 293 194 195 187 186 184 184 184 190 185 181 181 185 187 187 189 198 201 214 224 247 165 175 182 172
220 222 227 219 225 224 214 228 227 229 231 241 234 248 221 178 196 197 196 209 190 191 190 185 186 184 186 187 188 183 181 184 186 187 186 193 198 204 211 216 199 174 179 194
224 223 228 224 217 222 212 224 226 241 240 247 246 230 232 240 183 170 230 204 203 190 184 186 185 187 180 185 187 186 179 182 185 186 184 187 191 200 206 207 204 188 194 156
243 261 219 209 224 221 229 214 220 234 238 241 240 251 236 221 190 183 217 271 209 203 177 184 184 183 184 182 186 185 184 182 184 185 185 189 192 197 209 200 197 197 184 187
222 249 248 212 202 222 213 228 234 230 239 247 244 249 238 216 200 199 190 211 225 215 177 185 180 179 179 178 184 189 187 181 184 186 187 190 195 198 205 212 194 195 199 186
211 226 242 250 212 208 220 215 227 237 227 230 253 247 250 276 162 176 216 209 213 230 188 172 177 176 175 183 185 187 188 187 185 184 187 194 198 197 200 210 206 197 189 181
224 214 227 239 246 216 210 224 222 233 252 252 234 242 260 256 173 207 196 208 205 148 171 178 182 175 183 184 184 186 189 189 183 186 192 194 195 197 202 204 208 197 195 191
202 243 218 236 232 229 212 214 221 229 231 240 248 234 249 228 177 255 196 210 221 200 157 165 192 183 189 186 183 184 187 189 187 189 195 196 197 200 203 202 205 206 200 198
227 244 247 219 250 230 233 219 220 223 237 241 234 245 235 247 246 198 186 190 229 210 154 175 194 191 188 182 183 182 186 188 189 190 193 198 199 202 201 204 207 205 200 201
222 229 252 249 231 241 244 231 221 220 225 239 251 255 241 243 255 219 187 197 209 219 227 192 191 198 180 179 183 188 186 185 189 190 194 196 198 197 201 205 204 200 196 197
206 229 227 239 239 243 237 242 239 232 222 228 235 249 262 263 252 250 210 211 200 201 225 215 192 197 205 182 182 185 190 180 189 189 191 195 191 194 196 198 196 195 194 182
213 212 226 236 230 236 240 238 235 256 255 233 231 235 243 262 272 273 270 271 275 218 208 224 250 189 191 200 177 182 181 187 185 179 187 192 190 188 187 190 192 182 183 195
253 202 219 228 233 252 240 231 240 229 249 273 268 265 253 242 255 262 265 264 249 253 245 206 220 225 180 189 181 173 180 185 176 187 184 189 179 173 177 181 174 180 184 196
265 260 229 212 227 215 231 155 112 17 247 6 2 341 333 326 235 239 268 268 250 242 244 287 261 198 166 175 174 175 178 185 191 183 181 165 158 162 163 164 166 167 193 215
228 247 225 224 220 243 103 100 219 200 132 7 354 341 325 314 311 320 327 353 350 232 223 176 226 166 163 168 166 176 177 187 188 159 163 149 146 146 145 150 157 180 202 192
231 228 235 231 217 234 129 161 225 106 309 348 348 333 316 300 297 281 252 331 0 319 319 173 126 137 148 159 146 153 156 151 144 141 147 132 133 133 128 134 173 156 149 133
246 249 241 252 258 288 80 81 109 94 74 33 14 346 296 287 260 326 46 14 120 341 80 131 107 113 112 102 128 131 128 131 135 137 134 128 131 136 147 137 146 153 166 177
248 2 239 216 225 150 125 112 90 89 68 53 44 38 28 352 285 220 174 153 130 115 85 89 100 100 101 105 113 116 125 130 134 125 123 121 132 143 145 146 158 171 173 182
2 319 326 226 130 105 69 71 80 80 77 66 54 44 37 29 18 30 47 48 65 73 74 78 88 89 102 100 105 108 114 116 115 116 118 124 127 137 137 73 42 146 48 360
359 347 306 6 149 112 120 102 80 77 75 74 67 58 42 48 31 9 19 24 53 53 67 80 86 91 98 97 103 120 119 123 125 130 143 148 142 142 129 126 96 39 62 61